EW6420 Weather Reports


Display with metric or nautical units.
time (UTC)temp
F
wind
direction
speed
MPH
gust
MPH
rain 1hr
in
rain 24hr
in
rain mn
in
humidity
%
barometer
mb
20260901231502 66 86 0.0 2.0 0.00 0.00 0.00 71 1009.5
20260901230006 66 86 0.0 2.0 0.00 0.00 0.00 70 1009.6
20260901224501 66 86 0.0 2.0 0.00 0.00 0.00 71 1009.7
20260901223003 66 86 0.0 2.0 0.00 0.00 0.00 67 1009.6
20260901221502 66 86 0.0 2.0 0.00 0.00 0.00 67 1009.6
20260901220008 66 86 0.0 2.0 0.00 0.00 0.00 68 1009.6
20260901214502 66 86 0.0 2.0 0.00 0.00 0.00 69 1009.6
20260901213002 66 86 0.0 2.0 0.00 0.00 0.00 67 1009.6
20260901211502 66 108 0.0 2.0 0.00 0.00 0.00 67 1009.7
20260901210006 66 108 0.0 2.0 0.00 0.00 0.00 67 1009.7
20260901204502 66 122 0.0 2.0 0.00 0.00 0.00 67 1009.8
20260901201501 66 52 0.0 2.0 0.00 0.00 0.00 68 1010.0
20260901200005 66 52 0.0 2.0 0.00 0.00 0.00 69 1009.9
20260901194503 66 162 0.0 2.0 0.00 0.00 0.00 71 1010.0
20260901193004 65 30 0.0 2.0 0.00 0.00 0.00 73 1010.1
20260901191503 64 36 0.0 2.0 0.00 0.00 0.00 75 1010.1
20260901190007 63 183 0.0 3.0 0.00 0.00 0.00 77 1010.3
20260901184502 63 183 0.0 2.0 0.00 0.00 0.00 78 1010.3
20260901183008 62 183 1.0 2.0 0.00 0.00 0.00 78 1010.4
20260901181504 63 183 0.0 2.0 0.00 0.00 0.00 77 1010.3
20260901180006 63 183 1.0 3.0 0.00 0.00 0.00 77 1010.2
20260901174502 63 177 1.0 3.0 0.00 0.00 0.00 77 1010.1
20260901173003 62 204 0.0 2.0 0.00 0.00 0.00 78 1010.0
20260901170003 62 177 1.0 3.0 0.00 0.00 0.00 79 1010.0
20260901164500 61 177 0.0 3.0 0.00 0.00 0.00 80 1010.1
20260901163002 61 177 0.0 3.0 0.00 0.00 0.00 81 1010.2
20260901161503 60 102 0.0 2.0 0.00 0.00 0.00 82 1010.3
20260901160003 59 88 0.0 2.0 0.00 0.00 0.00 84 1010.3
20260901154501 58 88 0.0 1.0 0.00 0.00 0.00 86 1010.2
20260901153001 58 88 0.0 2.0 0.00 0.00 0.00 87 1010.3
20260901144501 56 88 0.0 1.0 0.00 0.00 0.00 89 1010.2
20260901134500 55 88 0.0 0.0 0.00 0.00 0.00 86 1009.8
20260901130006 55 88 0.0 1.0 0.00 0.00 0.00 84 1009.7
20260901124502 55 88 0.0 0.0 0.00 0.00 0.00 84 1009.6
20260901123000 55 88 0.0 0.0 0.00 0.00 0.00 84 1009.6
20260901121501 55 88 0.0 0.0 0.00 0.00 0.00 84 1009.5
20260901120002 55 88 0.0 0.0 0.00 0.00 0.00 84 1009.4
20260901113002 55 88 0.0 0.0 0.00 0.00 0.00 84 1009.4
20260901111503 56 88 0.0 0.0 0.00 0.00 0.00 84 1009.1
20260901110005 56 88 0.0 0.0 0.00 0.00 0.00 83 1008.9
20260901103001 56 88 0.0 0.0 0.00 0.00 0.00 83 1008.9
20260901100006 56 88 0.0 0.0 0.00 0.00 0.00 83 1008.8
20260901094503 57 88 0.0 0.0 0.00 0.00 0.00 82 1008.8
20260901093002 57 88 0.0 0.0 0.00 0.00 0.00 82 1008.7
20260901091502 57 88 0.0 0.0 0.00 0.00 0.00 82 1008.6
20260901090000 57 88 0.0 0.0 0.00 0.00 0.00 81 1008.6
20260901084459 58 88 0.0 2.0 0.00 0.00 0.00 80 1008.5
20260901083000 58 88 0.0 0.0 0.00 0.00 0.00 80 1008.5
20260901081501 58 88 0.0 0.0 0.00 0.00 0.00 80 1008.6
20260901080004 59 88 0.0 0.0 0.00 0.00 0.00 79 1008.4
20260901074501 59 88 0.0 0.0 0.00 0.00 0.00 78 1008.1
20260901073002 59 88 0.0 0.0 0.00 0.00 0.00 78 1008.0
20260901071502 60 88 0.0 0.0 0.00 0.00 0.00 77 1008.0
20260901070005 60 88 0.0 0.0 0.00 0.00 0.00 77 1008.0
20260901064502 60 88 0.0 0.0 0.00 0.00 0.00 76 1008.1
20260901063002 61 88 0.0 0.0 0.00 0.00 0.00 75 1008.0
20260901061502 61 88 0.0 0.0 0.00 0.00 0.00 74 1008.0
20260901060005 61 88 0.0 0.0 0.00 0.00 0.00 73 1008.2
20260901054502 62 88 0.0 0.0 0.00 0.00 0.00 72 1008.3
20260901051503 63 88 0.0 0.0 0.00 0.00 0.00 70 1008.3
20260901050005 63 88 0.0 0.0 0.00 0.00 0.00 69 1008.4
20260901044506 64 88 0.0 0.0 0.00 0.00 0.00 68 1008.4
20260901043003 64 88 0.0 0.0 0.00 0.00 0.00 68 1008.4
20260901041502 65 88 0.0 0.0 0.00 0.00 0.00 67 1008.4
20260901040007 65 88 0.0 0.0 0.00 0.00 0.00 66 1008.3
20260901034502 66 88 0.0 0.0 0.00 0.00 0.00 65 1008.2
20260901033004 66 88 0.0 0.0 0.00 0.00 0.00 64 1008.0
20260901031503 67 88 0.0 0.0 0.00 0.00 0.00 62 1007.8
20260901030006 68 88 0.0 0.0 0.00 0.00 0.00 61 1007.7
20260901023002 69 88 0.0 2.0 0.00 0.00 0.00 60 1007.8
20260901021501 70 88 0.0 2.0 0.00 0.00 0.00 59 1007.8
20260901014502 71 88 0.0 0.0 0.00 0.00 0.00 56 1007.9
20260901011502 73 88 0.0 2.0 0.00 0.00 0.00 53 1007.9
20260901010005 74 95 0.0 2.0 0.00 0.00 0.00 52 1007.8
20260901004501 74 95 0.0 2.0 0.00 0.00 0.00 51 1007.8
20260901003002 75 95 0.0 2.0 0.00 0.00 0.00 51 1007.9
20260901001503 74 104 0.0 2.0 0.00 0.00 0.00 53 1008.0
20260901000006 73 105 0.0 2.0 0.00 0.00 0.00 54 1008.1
20260831234502 73 105 0.0 2.0 0.00 0.00 0.00 53 1008.3
20260831233002 73 147 0.0 3.0 0.00 0.00 0.00 54 1008.3